This is the latest recevied weather packets stored in our database for station/object TA3HRJ-12. If no packets are shown the sender has not sent any weather packets the latest 10 day(s).
| Time | Temp. | Humidity | Pressure | Rain* | Wind** | Luminosity | Snow |
|---|---|---|---|---|---|---|---|
| 1777460047 | 26.11° C | 14% | 1027.3 hPa | - | - | - | - |
| 1777459147 | 25.56° C | 15% | 1027.3 hPa | - | - | - | - |
| 1777458247 | 26.11° C | 16% | 1027.4 hPa | - | - | - | - |
| 1777457347 | 26.67° C | 16% | 1027.5 hPa | - | - | - | - |
| 1777456447 | 26.11° C | 18% | 1027.4 hPa | - | - | - | - |
| 1777455547 | 25.56° C | 19% | 1027.6 hPa | - | - | - | - |
| 1777454647 | 26.11° C | 20% | 1027.8 hPa | - | - | - | - |
| 1777453747 | 26.11° C | 21% | 1027.7 hPa | - | - | - | - |
| 1777452847 | 23.89° C | 21% | 1027.7 hPa | - | - | - | - |
| 1777451947 | 25° C | 21% | 1027.7 hPa | - | - | - | - |
| 1777451046 | 25.56° C | 20% | 1027.8 hPa | - | - | - | - |
| 1777450146 | 24.44° C | 21% | 1027.7 hPa | - | - | - | - |
| 1777449246 | 23.89° C | 20% | 1027.7 hPa | - | - | - | - |
| 1777448346 | 22.78° C | 21% | 1027.8 hPa | - | - | - | - |
| 1777447446 | 22.78° C | 22% | 1027.6 hPa | - | - | - | - |
| 1777446545 | 23.33° C | 23% | 1027.8 hPa | - | - | - | - |
| 1777445645 | 24.44° C | 23% | 1027.6 hPa | - | - | - | - |
| 1777444745 | 24.44° C | 24% | 1027.6 hPa | - | - | - | - |
| 1777443845 | 22.78° C | 25% | 1027.6 hPa | - | - | - | - |
| 1777442945 | 22.78° C | 26% | 1027.6 hPa | - | - | - | - |
| 1777442045 | 21.11° C | 28% | 1027.6 hPa | - | - | - | - |
| 1777441144 | 21.67° C | 27% | 1027.6 hPa | - | - | - | - |
| 1777440244 | 21.67° C | 27% | 1027.5 hPa | - | - | - | - |
| 1777439344 | 21.11° C | 28% | 1027.4 hPa | - | - | - | - |
| 1777438444 | 21.11° C | 27% | 1027.4 hPa | - | - | - | - |
* Rain since midnight (hover to see other rain measurements)
** Current wind speed in m/s (hover to see current wind gust speed)